Time,TemperatureF,DewpointF,PressureIn,WindDirection,WindDirectionDegrees,WindSpeedMPH,WindSpeedGustMPH,Humidity,HourlyPrecipIn,Conditions,Clouds,dailyrainin,SoftwareType,DateUTC
2013-11-24 00:01:00,31.4,29.3,30.21,NNW,344,0.0,0.0,92,0.00,,,0.24,Wunderground v.1.15,2013-11-24 07:01:00,
2013-11-24 00:05:00,31.3,29.2,30.21,NNW,344,0.0,1.0,92,0.00,,,0.24,Wunderground v.1.15,2013-11-24 07:05:00,
2013-11-24 00:10:00,31.2,29.1,30.21,NNW,344,0.0,1.0,92,0.00,,,0.24,Wunderground v.1.15,2013-11-24 07:10:00,
2013-11-24 00:15:00,31.2,29.1,30.21,NNW,344,0.0,1.0,92,0.00,,,0.00,Wunderground v.1.15,2013-11-24 07:15:00,
2013-11-24 00:20:00,31.2,29.4,30.21,NNW,344,0.0,0.0,93,0.00,,,0.00,Wunderground v.1.15,2013-11-24 07:20:00,
2013-11-24 00:25:00,31.1,29.0,30.21,NNW,344,0.0,0.0,92,0.00,,,0.00,Wunderground v.1.15,2013-11-24 07:25:00,
2013-11-24 00:30:00,31.2,29.4,30.21,NNW,344,0.0,0.0,93,0.00,,,0.00,Wunderground v.1.15,2013-11-24 07:30:00,
2013-11-24 00:35:00,31.2,29.4,30.21,NNW,344,0.0,0.0,93,0.00,,,0.00,Wunderground v.1.15,2013-11-24 07:35:00,
2013-11-24 00:40:00,31.3,29.5,30.21,NNW,344,0.0,1.0,93,0.00,,,0.00,Wunderground v.1.15,2013-11-24 07:40:00,
2013-11-24 00:45:00,31.3,29.5,30.21,NNW,344,0.0,1.0,93,0.00,,,0.00,Wunderground v.1.15,2013-11-24 07:45:00,
2013-11-24 00:50:00,31.4,29.6,30.21,NNW,344,0.0,0.0,93,0.00,,,0.00,Wunderground v.1.15,2013-11-24 07:50:00,
2013-11-24 00:55:00,31.5,29.7,30.21,NNW,344,0.0,0.0,93,0.00,,,0.00,Wunderground v.1.15,2013-11-24 07:55:00,
2013-11-24 01:05:00,31.5,29.4,30.21,NNW,344,0.0,1.0,92,0.00,,,0.00,Wunderground v.1.15,2013-11-24 08:05:00,
2013-11-24 01:10:00,31.3,29.0,30.20,NNW,344,0.0,1.0,91,0.00,,,0.00,Wunderground v.1.15,2013-11-24 08:10:00,
2013-11-24 01:20:00,31.1,28.8,30.20,NNW,344,0.0,1.0,91,0.00,,,0.00,Wunderground v.1.15,2013-11-24 08:20:00,
2013-11-24 01:25:00,31.0,28.9,30.20,NNW,344,0.0,0.0,92,0.00,,,0.00,Wunderground v.1.15,2013-11-24 08:25:00,
2013-11-24 01:30:00,30.9,28.9,30.20,NNW,344,0.0,0.0,92,0.00,,,0.00,Wunderground v.1.15,2013-11-24 08:30:00,
2013-11-24 01:35:00,30.8,28.8,30.20,NNW,344,0.0,0.0,92,0.00,,,0.00,Wunderground v.1.15,2013-11-24 08:35:00,
2013-11-24 01:40:00,30.9,28.9,30.20,NNW,344,0.0,0.0,92,0.00,,,0.00,Wunderground v.1.15,2013-11-24 08:40:00,
2013-11-24 01:45:00,30.9,29.1,30.20,NNW,344,0.0,0.0,93,0.00,,,0.00,Wunderground v.1.15,2013-11-24 08:45:00,
2013-11-24 01:50:00,31.1,29.3,30.20,NNW,344,0.0,0.0,93,0.00,,,0.00,Wunderground v.1.15,2013-11-24 08:50:00,
2013-11-24 02:00:00,31.2,29.4,30.20,NNW,344,0.0,0.0,93,0.00,,,0.00,Wunderground v.1.15,2013-11-24 09:00:00,
2013-11-24 02:05:00,31.4,29.6,30.20,NNW,344,0.0,2.0,93,0.00,,,0.00,Wunderground v.1.15,2013-11-24 09:05:00,
2013-11-24 02:10:00,31.6,29.8,30.20,NNW,344,0.0,2.0,93,0.00,,,0.00,Wunderground v.1.15,2013-11-24 09:10:00,
2013-11-24 02:15:00,31.7,29.9,30.20,NNW,344,0.0,2.0,93,0.00,,,0.00,Wunderground v.1.15,2013-11-24 09:15:00,
2013-11-24 02:20:00,31.9,29.8,30.20,NNW,344,0.0,0.0,92,0.00,,,0.00,Wunderground v.1.15,2013-11-24 09:20:00,
2013-11-24 02:25:00,31.9,29.8,30.20,NNW,344,0.0,0.0,92,0.00,,,0.00,Wunderground v.1.15,2013-11-24 09:25:00,
2013-11-24 02:30:00,31.9,29.6,30.20,NNW,344,0.0,0.0,91,0.00,,,0.00,Wunderground v.1.15,2013-11-24 09:30:00,
2013-11-24 02:35:00,31.8,29.5,30.20,NNW,344,0.0,1.0,91,0.00,,,0.00,Wunderground v.1.15,2013-11-24 09:35:00,
2013-11-24 02:40:00,31.5,29.2,30.19,NNW,344,0.0,0.0,91,0.00,,,0.00,Wunderground v.1.15,2013-11-24 09:40:00,
2013-11-24 02:45:00,31.4,29.1,30.19,NNW,344,0.0,0.0,91,0.00,,,0.00,Wunderground v.1.15,2013-11-24 09:45:00,
2013-11-24 02:50:00,31.4,29.3,30.19,NNW,344,0.0,0.0,92,0.00,,,0.00,Wunderground v.1.15,2013-11-24 09:50:00,
2013-11-24 02:55:00,31.5,29.4,30.18,NNW,344,0.0,0.0,92,0.00,,,0.00,Wunderground v.1.15,2013-11-24 09:55:00,
2013-11-24 03:05:00,31.5,29.4,30.18,NNW,344,0.0,2.0,92,0.00,,,0.00,Wunderground v.1.15,2013-11-24 10:05:00,
2013-11-24 03:10:00,31.5,29.4,30.18,NNW,344,0.0,2.0,92,0.00,,,0.00,Wunderground v.1.15,2013-11-24 10:10:00,
2013-11-24 03:15:00,31.5,29.4,30.18,NNW,344,0.0,2.0,92,0.00,,,0.00,Wunderground v.1.15,2013-11-24 10:15:00,
2013-11-24 03:20:00,31.7,29.6,30.18,NNW,344,0.0,2.0,92,0.00,,,0.00,Wunderground v.1.15,2013-11-24 10:20:00,
2013-11-24 03:25:00,31.7,29.4,30.18,NNW,344,0.0,0.0,91,0.00,,,0.00,Wunderground v.1.15,2013-11-24 10:25:00,
2013-11-24 03:30:00,31.6,29.3,30.18,NNW,344,0.0,0.0,91,0.00,,,0.00,Wunderground v.1.15,2013-11-24 10:30:00,
2013-11-24 03:35:00,31.5,29.2,30.18,NNW,344,0.0,0.0,91,0.00,,,0.00,Wunderground v.1.15,2013-11-24 10:35:00,
2013-11-24 03:40:00,31.4,28.8,30.18,NNW,344,0.0,0.0,90,0.00,,,0.00,Wunderground v.1.15,2013-11-24 10:40:00,
2013-11-24 03:45:00,31.3,29.0,30.17,NNW,344,0.0,0.0,91,0.00,,,0.00,Wunderground v.1.15,2013-11-24 10:45:00,
2013-11-24 03:50:00,31.3,29.0,30.17,NNW,344,0.0,0.0,91,0.00,,,0.00,Wunderground v.1.15,2013-11-24 10:50:00,
2013-11-24 03:55:00,31.3,29.0,30.17,NNW,344,0.0,0.0,91,0.00,,,0.00,Wunderground v.1.15,2013-11-24 10:55:00,
2013-11-24 04:05:00,31.0,28.7,30.16,NNW,344,0.0,2.0,91,0.00,,,0.00,Wunderground v.1.15,2013-11-24 11:05:00,
2013-11-24 04:10:00,31.0,28.7,30.16,NNW,344,0.0,2.0,91,0.00,,,0.00,Wunderground v.1.15,2013-11-24 11:10:00,
2013-11-24 04:20:00,30.7,28.4,30.17,NNW,344,0.0,2.0,91,0.00,,,0.00,Wunderground v.1.15,2013-11-24 11:20:00,
2013-11-24 04:25:00,30.6,28.3,30.17,NNW,344,0.0,0.0,91,0.00,,,0.00,Wunderground v.1.15,2013-11-24 11:25:00,
2013-11-24 04:30:00,30.4,28.1,30.18,NNW,344,0.0,0.0,91,0.00,,,0.00,Wunderground v.1.15,2013-11-24 11:30:00,
2013-11-24 04:35:00,30.3,28.3,30.19,NNW,344,0.0,0.0,92,0.00,,,0.00,Wunderground v.1.15,2013-11-24 11:35:00,
2013-11-24 04:40:00,30.4,28.4,30.18,NNW,344,0.0,0.0,92,0.00,,,0.00,Wunderground v.1.15,2013-11-24 11:40:00,
2013-11-24 04:45:00,30.5,28.5,30.18,NNW,344,1.0,1.0,92,0.00,,,0.00,Wunderground v.1.15,2013-11-24 11:45:00,
2013-11-24 04:50:00,30.5,28.5,30.18,NNW,344,1.0,2.0,92,0.00,,,0.00,Wunderground v.1.15,2013-11-24 11:50:00,
2013-11-24 04:55:00,30.5,28.5,30.18,NNW,344,1.0,1.0,92,0.00,,,0.00,Wunderground v.1.15,2013-11-24 11:55:00,
2013-11-24 05:00:00,30.5,28.5,30.18,NNW,344,0.0,0.0,92,0.00,,,0.00,Wunderground v.1.15,2013-11-24 12:00:00,
2013-11-24 05:10:00,30.8,28.8,30.17,NNW,344,0.0,2.0,92,0.00,,,0.00,Wunderground v.1.15,2013-11-24 12:10:00,
2013-11-24 05:20:00,30.9,28.9,30.17,NNW,344,0.0,1.0,92,0.00,,,0.00,Wunderground v.1.15,2013-11-24 12:20:00,
2013-11-24 05:25:00,31.0,28.7,30.18,NNW,344,0.0,1.0,91,0.00,,,0.00,Wunderground v.1.15,2013-11-24 12:25:00,
2013-11-24 05:30:00,31.0,28.7,30.18,NNW,344,0.0,0.0,91,0.00,,,0.00,Wunderground v.1.15,2013-11-24 12:30:00,
2013-11-24 05:35:00,31.1,28.8,30.18,NNW,344,0.0,0.0,91,0.00,,,0.00,Wunderground v.1.15,2013-11-24 12:35:00,
2013-11-24 05:40:00,31.0,28.7,30.18,NNW,344,0.0,0.0,91,0.00,,,0.00,Wunderground v.1.15,2013-11-24 12:40:00,
2013-11-24 05:45:00,31.0,28.7,30.18,NNW,344,0.0,1.0,91,0.00,,,0.00,Wunderground v.1.15,2013-11-24 12:45:00,
2013-11-24 05:50:00,30.9,28.6,30.18,NNW,344,0.0,0.0,91,0.00,,,0.00,Wunderground v.1.15,2013-11-24 12:50:00,
2013-11-24 05:55:00,31.0,28.7,30.18,NNW,344,0.0,0.0,91,0.00,,,0.00,Wunderground v.1.15,2013-11-24 12:55:00,
2013-11-24 06:01:00,31.0,28.7,30.18,NNW,344,0.0,4.0,91,0.00,,,0.00,Wunderground v.1.15,2013-11-24 13:01:00,
2013-11-24 06:10:00,31.2,28.9,30.17,NNW,344,0.0,4.0,91,0.00,,,0.00,Wunderground v.1.15,2013-11-24 13:10:00,
2013-11-24 06:15:00,31.2,28.9,30.18,NNW,344,0.0,4.0,91,0.00,,,0.00,Wunderground v.1.15,2013-11-24 13:15:00,
2013-11-24 06:20:00,31.0,28.7,30.17,NNW,344,0.0,4.0,91,0.00,,,0.00,Wunderground v.1.15,2013-11-24 13:20:00,
2013-11-24 06:25:00,31.1,29.0,30.18,NNW,344,0.0,0.0,92,0.00,,,0.00,Wunderground v.1.15,2013-11-24 13:25:00,
2013-11-24 06:30:00,31.1,29.0,30.17,NNW,344,0.0,0.0,92,0.00,,,0.00,Wunderground v.1.15,2013-11-24 13:30:00,
2013-11-24 06:35:00,31.1,29.0,30.17,NNW,344,0.0,0.0,92,0.00,,,0.00,Wunderground v.1.15,2013-11-24 13:35:00,
2013-11-24 06:40:00,31.2,29.1,30.17,NNW,344,0.0,0.0,92,0.00,,,0.00,Wunderground v.1.15,2013-11-24 13:40:00,
2013-11-24 06:45:00,31.1,29.0,30.18,NNW,344,0.0,0.0,92,0.00,,,0.00,Wunderground v.1.15,2013-11-24 13:45:00,
2013-11-24 06:50:00,31.1,29.0,30.18,NNW,344,0.0,0.0,92,0.00,,,0.00,Wunderground v.1.15,2013-11-24 13:50:00,
2013-11-24 06:55:00,31.1,29.0,30.18,NNW,344,0.0,0.0,92,0.00,,,0.00,Wunderground v.1.15,2013-11-24 13:55:00,
2013-11-24 07:00:00,31.1,29.0,30.18,NNW,344,0.0,0.0,92,0.00,,,0.00,Wunderground v.1.15,2013-11-24 14:00:00,
2013-11-24 07:05:00,31.1,29.0,30.18,NNW,344,0.0,3.0,92,0.00,,,0.00,Wunderground v.1.15,2013-11-24 14:05:00,
2013-11-24 07:10:00,31.1,29.0,30.17,NNW,344,0.0,3.0,92,0.00,,,0.00,Wunderground v.1.15,2013-11-24 14:10:00,
2013-11-24 07:15:00,31.1,29.0,30.17,NNW,344,0.0,3.0,92,0.00,,,0.00,Wunderground v.1.15,2013-11-24 14:15:00,
2013-11-24 07:20:00,31.2,29.1,30.17,NNW,344,0.0,0.0,92,0.00,,,0.00,Wunderground v.1.15,2013-11-24 14:20:00,
2013-11-24 07:25:00,31.2,29.4,30.17,NNW,344,0.0,0.0,93,0.00,,,0.00,Wunderground v.1.15,2013-11-24 14:25:00,
2013-11-24 07:30:00,31.4,29.6,30.17,NNW,344,0.0,0.0,93,0.00,,,0.00,Wunderground v.1.15,2013-11-24 14:30:00,
2013-11-24 07:35:00,31.4,29.3,30.17,NNW,344,0.0,1.0,92,0.00,,,0.00,Wunderground v.1.15,2013-11-24 14:35:00,
2013-11-24 07:40:00,31.2,28.9,30.17,NNW,344,1.0,2.0,91,0.00,,,0.00,Wunderground v.1.15,2013-11-24 14:40:00,
2013-11-24 07:45:00,31.0,28.7,30.17,NNW,344,1.0,2.0,91,0.00,,,0.00,Wunderground v.1.15,2013-11-24 14:45:00,
2013-11-24 07:50:00,31.0,28.9,30.17,NNW,344,2.0,2.0,92,0.00,,,0.00,Wunderground v.1.15,2013-11-24 14:50:00,
2013-11-24 07:55:00,30.9,28.9,30.17,NNW,344,2.0,2.0,92,0.00,,,0.00,Wunderground v.1.15,2013-11-24 14:55:00,
2013-11-24 08:05:00,31.4,29.6,30.17,NNW,344,0.0,2.0,93,0.00,,,0.00,Wunderground v.1.15,2013-11-24 15:05:00,
2013-11-24 08:10:00,31.5,29.4,30.17,NNW,344,0.0,2.0,92,0.00,,,0.00,Wunderground v.1.15,2013-11-24 15:10:00,
2013-11-24 08:15:00,31.4,29.3,30.17,NNW,344,0.0,2.0,92,0.00,,,0.00,Wunderground v.1.15,2013-11-24 15:15:00,
2013-11-24 08:20:00,31.4,29.3,30.17,NNW,344,0.0,2.0,92,0.00,,,0.00,Wunderground v.1.15,2013-11-24 15:20:00,
2013-11-24 08:25:00,31.5,29.4,30.17,NNW,344,0.0,0.0,92,0.00,,,0.00,Wunderground v.1.15,2013-11-24 15:25:00,
2013-11-24 08:30:00,31.5,29.4,30.17,NNW,344,0.0,0.0,92,0.00,,,0.00,Wunderground v.1.15,2013-11-24 15:30:00,
2013-11-24 08:35:00,31.5,29.4,30.17,NNW,344,0.0,0.0,92,0.00,,,0.00,Wunderground v.1.15,2013-11-24 15:35:00,
2013-11-24 08:40:00,31.6,29.5,30.16,NNW,344,0.0,0.0,92,0.00,,,0.00,Wunderground v.1.15,2013-11-24 15:40:00,
2013-11-24 08:45:00,31.6,29.5,30.16,NNW,344,0.0,0.0,92,0.00,,,0.00,Wunderground v.1.15,2013-11-24 15:45:00,
2013-11-24 08:50:00,31.5,29.4,30.16,NNW,344,0.0,0.0,92,0.00,,,0.00,Wunderground v.1.15,2013-11-24 15:50:00,
2013-11-24 08:55:00,31.5,29.4,30.16,NNW,344,0.0,1.0,92,0.00,,,0.00,Wunderground v.1.15,2013-11-24 15:55:00,
2013-11-24 09:00:00,31.6,29.5,30.16,NNW,344,0.0,4.0,92,0.00,,,0.00,Wunderground v.1.15,2013-11-24 16:00:00,
2013-11-24 09:05:00,31.6,29.5,30.16,NNW,344,1.0,4.0,92,0.00,,,0.00,Wunderground v.1.15,2013-11-24 16:05:00,
2013-11-24 09:10:00,31.7,29.6,30.16,NNW,344,1.0,4.0,92,0.00,,,0.00,Wunderground v.1.15,2013-11-24 16:10:00,
2013-11-24 09:15:00,31.8,29.7,30.16,NNW,344,1.0,4.0,92,0.00,,,0.00,Wunderground v.1.15,2013-11-24 16:15:00,
2013-11-24 09:20:00,32.0,29.9,30.16,NNW,344,1.0,4.0,92,0.00,,,0.00,Wunderground v.1.15,2013-11-24 16:20:00,
2013-11-24 09:25:00,32.2,30.1,30.16,NNW,344,0.0,1.0,92,0.00,,,0.00,Wunderground v.1.15,2013-11-24 16:25:00,
2013-11-24 09:30:00,32.4,30.3,30.17,NNW,344,0.0,1.0,92,0.00,,,0.00,Wunderground v.1.15,2013-11-24 16:30:00,
2013-11-24 09:35:00,32.5,30.4,30.17,NNW,344,0.0,0.0,92,0.00,,,0.00,Wunderground v.1.15,2013-11-24 16:35:00,
2013-11-24 09:40:00,32.8,30.7,30.17,NNW,344,0.0,0.0,92,0.00,,,0.00,Wunderground v.1.15,2013-11-24 16:40:00,
2013-11-24 09:45:00,33.0,30.9,30.17,NNW,344,0.0,0.0,92,0.00,,,0.00,Wunderground v.1.15,2013-11-24 16:45:00,
2013-11-24 09:50:00,33.3,31.0,30.17,NNW,344,0.0,0.0,91,0.00,,,0.00,Wunderground v.1.15,2013-11-24 16:50:00,
2013-11-24 09:55:00,33.6,31.0,30.16,NNW,344,0.0,0.0,90,0.00,,,0.00,Wunderground v.1.15,2013-11-24 16:55:00,
2013-11-24 10:05:00,33.9,31.3,30.16,NNW,344,1.0,3.0,90,0.00,,,0.00,Wunderground v.1.15,2013-11-24 17:05:00,
2013-11-24 10:10:00,33.8,31.2,30.15,NNW,344,1.0,3.0,90,0.00,,,0.00,Wunderground v.1.15,2013-11-24 17:10:00,
2013-11-24 10:15:00,33.8,31.2,30.15,NNW,344,1.0,1.0,90,0.00,,,0.00,Wunderground v.1.15,2013-11-24 17:15:00,
2013-11-24 10:20:00,34.1,31.5,30.15,NNW,344,0.0,1.0,90,0.00,,,0.00,Wunderground v.1.15,2013-11-24 17:20:00,
2013-11-24 10:25:00,34.2,31.3,30.14,NNW,344,0.0,0.0,89,0.00,,,0.00,Wunderground v.1.15,2013-11-24 17:25:00,
2013-11-24 10:30:00,34.4,31.2,30.14,NNW,344,0.0,0.0,88,0.00,,,0.01,Wunderground v.1.15,2013-11-24 17:30:00,
2013-11-24 10:40:00,34.4,30.9,30.14,NNW,344,0.0,0.0,87,0.00,,,0.01,Wunderground v.1.15,2013-11-24 17:40:00,
2013-11-24 10:45:00,34.4,30.9,30.14,NNW,344,0.0,0.0,87,0.00,,,0.01,Wunderground v.1.15,2013-11-24 17:45:00,
2013-11-24 10:50:00,34.4,30.9,30.13,NNW,344,1.0,1.0,87,0.00,,,0.01,Wunderground v.1.15,2013-11-24 17:50:00,
2013-11-24 10:55:00,34.4,30.9,30.14,NNW,344,1.0,1.0,87,0.00,,,0.01,Wunderground v.1.15,2013-11-24 17:55:00,
2013-11-24 11:00:00,34.4,30.6,30.13,NNW,344,1.0,2.0,86,0.00,,,0.01,Wunderground v.1.15,2013-11-24 18:00:00,
2013-11-24 11:05:00,34.4,30.6,30.13,NNW,344,1.0,4.0,86,0.00,,,0.01,Wunderground v.1.15,2013-11-24 18:05:00,
2013-11-24 11:10:00,34.3,30.8,30.13,NNW,344,2.0,4.0,87,0.00,,,0.01,Wunderground v.1.15,2013-11-24 18:10:00,
2013-11-24 11:20:00,33.9,30.7,30.13,NNW,344,2.0,2.0,88,0.00,,,0.01,Wunderground v.1.15,2013-11-24 18:20:00,
2013-11-24 11:30:00,33.6,30.7,30.12,NNW,344,2.0,2.0,89,0.00,,,0.01,Wunderground v.1.15,2013-11-24 18:30:00,
2013-11-24 11:40:00,33.5,30.9,30.12,NNW,344,3.0,4.0,90,0.00,,,0.01,Wunderground v.1.15,2013-11-24 18:40:00,
2013-11-24 11:45:00,33.6,31.0,30.12,NNW,344,3.0,4.0,90,0.00,,,0.01,Wunderground v.1.15,2013-11-24 18:45:00,
2013-11-24 11:50:00,33.7,31.4,30.11,NNW,344,2.0,2.0,91,0.00,,,0.01,Wunderground v.1.15,2013-11-24 18:50:00,
2013-11-24 11:55:00,33.9,31.6,30.11,NNW,344,1.0,2.0,91,0.00,,,0.01,Wunderground v.1.15,2013-11-24 18:55:00,
2013-11-24 12:05:00,34.4,32.0,30.11,NNW,344,0.0,4.0,91,0.00,,,0.01,Wunderground v.1.15,2013-11-24 19:05:00,
2013-11-24 12:10:00,34.5,31.9,30.11,NNW,344,1.0,4.0,90,0.00,,,0.01,Wunderground v.1.15,2013-11-24 19:10:00,
2013-11-24 12:15:00,34.8,32.4,30.11,NNW,344,0.0,4.0,91,0.00,,,0.01,Wunderground v.1.15,2013-11-24 19:15:00,
2013-11-24 12:20:00,35.1,32.2,30.10,NNW,344,0.0,4.0,89,0.00,,,0.01,Wunderground v.1.15,2013-11-24 19:20:00,
2013-11-24 12:25:00,35.1,32.2,30.10,NNW,344,0.0,0.0,89,0.00,,,0.01,Wunderground v.1.15,2013-11-24 19:25:00,
2013-11-24 12:30:00,35.4,32.5,30.10,NNW,344,0.0,0.0,89,0.00,,,0.01,Wunderground v.1.15,2013-11-24 19:30:00,
2013-11-24 12:35:00,35.5,32.3,30.10,NNW,344,0.0,0.0,88,0.00,,,0.01,Wunderground v.1.15,2013-11-24 19:35:00,
2013-11-24 12:40:00,35.6,32.4,30.09,NNW,344,0.0,0.0,88,0.00,,,0.01,Wunderground v.1.15,2013-11-24 19:40:00,
2013-11-24 12:45:00,35.6,32.1,30.09,NNW,344,0.0,1.0,87,0.00,,,0.01,Wunderground v.1.15,2013-11-24 19:45:00,
2013-11-24 12:50:00,35.5,32.3,30.09,NNW,344,0.0,2.0,88,0.00,,,0.01,Wunderground v.1.15,2013-11-24 19:50:00,
2013-11-24 13:00:00,35.4,32.2,30.08,NNW,344,1.0,3.0,88,0.00,,,0.01,Wunderground v.1.15,2013-11-24 20:00:00,
2013-11-24 13:05:00,35.4,32.5,30.08,NNW,344,0.0,7.0,89,0.00,,,0.01,Wunderground v.1.15,2013-11-24 20:05:00,
2013-11-24 13:10:00,35.4,32.5,30.08,NNW,344,0.0,7.0,89,0.00,,,0.01,Wunderground v.1.15,2013-11-24 20:10:00,
2013-11-24 13:15:00,35.5,32.6,30.08,NNW,344,0.0,7.0,89,0.00,,,0.01,Wunderground v.1.15,2013-11-24 20:15:00,
2013-11-24 13:20:00,35.5,32.3,30.07,NNW,344,0.0,0.0,88,0.00,,,0.01,Wunderground v.1.15,2013-11-24 20:20:00,
2013-11-24 13:25:00,35.6,32.4,30.07,NNW,344,0.0,0.0,88,0.00,,,0.01,Wunderground v.1.15,2013-11-24 20:25:00,
2013-11-24 13:30:00,35.7,32.8,30.07,NNW,344,0.0,0.0,89,0.00,,,0.01,Wunderground v.1.15,2013-11-24 20:30:00,
2013-11-24 13:35:00,35.8,32.6,30.07,NNW,344,0.0,0.0,88,0.00,,,0.01,Wunderground v.1.15,2013-11-24 20:35:00,
2013-11-24 13:40:00,35.6,32.1,30.07,NNW,344,0.0,0.0,87,0.00,,,0.01,Wunderground v.1.15,2013-11-24 20:40:00,
2013-11-24 13:45:00,35.5,32.3,30.07,NNW,344,0.0,1.0,88,0.00,,,0.01,Wunderground v.1.15,2013-11-24 20:45:00,
2013-11-24 13:50:00,35.3,32.1,30.06,NNW,344,0.0,0.0,88,0.00,,,0.01,Wunderground v.1.15,2013-11-24 20:50:00,
2013-11-24 13:55:00,35.2,32.0,30.07,NNW,344,1.0,1.0,88,0.00,,,0.01,Wunderground v.1.15,2013-11-24 20:55:00,
2013-11-24 14:05:00,35.0,32.4,30.07,NNW,344,0.0,4.0,90,0.00,,,0.01,Wunderground v.1.15,2013-11-24 21:05:00,
2013-11-24 14:10:00,35.1,32.5,30.06,NNW,344,0.0,4.0,90,0.00,,,0.01,Wunderground v.1.15,2013-11-24 21:10:00,
2013-11-24 14:15:00,35.1,32.5,30.07,NNW,344,0.0,4.0,90,0.00,,,0.01,Wunderground v.1.15,2013-11-24 21:15:00,
2013-11-24 14:20:00,34.9,32.3,30.06,NNW,344,1.0,4.0,90,0.00,,,0.01,Wunderground v.1.15,2013-11-24 21:20:00,
2013-11-24 14:25:00,34.7,32.1,30.06,NNW,344,1.0,1.0,90,0.00,,,0.01,Wunderground v.1.15,2013-11-24 21:25:00,
2013-11-24 14:30:00,34.6,32.0,30.06,NNW,344,1.0,1.0,90,0.00,,,0.01,Wunderground v.1.15,2013-11-24 21:30:00,
2013-11-24 14:35:00,34.6,32.2,30.06,NNW,344,1.0,1.0,91,0.00,,,0.01,Wunderground v.1.15,2013-11-24 21:35:00,
2013-11-24 14:40:00,34.6,32.2,30.06,NNW,344,1.0,1.0,91,0.00,,,0.02,Wunderground v.1.15,2013-11-24 21:40:00,
2013-11-24 14:45:00,34.7,32.3,30.06,NNW,344,1.0,2.0,91,0.00,,,0.02,Wunderground v.1.15,2013-11-24 21:45:00,
2013-11-24 14:50:00,34.7,32.3,30.06,NNW,344,1.0,2.0,91,0.00,,,0.02,Wunderground v.1.15,2013-11-24 21:50:00,
2013-11-24 14:55:00,34.6,32.2,30.06,NNW,344,1.0,2.0,91,0.00,,,0.02,Wunderground v.1.15,2013-11-24 21:55:00,
2013-11-24 15:00:00,34.5,32.1,30.06,NNW,344,1.0,3.0,91,0.00,,,0.02,Wunderground v.1.15,2013-11-24 22:00:00,
2013-11-24 15:05:00,34.5,32.1,30.06,NNW,344,1.0,3.0,91,0.00,,,0.02,Wunderground v.1.15,2013-11-24 22:05:00,
2013-11-24 15:10:00,34.5,32.1,30.06,NNW,344,0.0,3.0,91,0.00,,,0.02,Wunderground v.1.15,2013-11-24 22:10:00,
2013-11-24 15:20:00,34.7,32.3,30.06,NNW,344,0.0,3.0,91,0.00,,,0.02,Wunderground v.1.15,2013-11-24 22:20:00,
2013-11-24 15:25:00,34.7,32.3,30.07,NNW,344,0.0,0.0,91,0.00,,,0.02,Wunderground v.1.15,2013-11-24 22:25:00,
2013-11-24 15:30:00,34.7,32.3,30.06,NNW,344,0.0,0.0,91,0.00,,,0.02,Wunderground v.1.15,2013-11-24 22:30:00,
2013-11-24 15:35:00,34.5,32.1,30.07,NNW,344,0.0,0.0,91,0.00,,,0.02,Wunderground v.1.15,2013-11-24 22:35:00,
2013-11-24 15:40:00,34.4,32.0,30.07,NNW,344,0.0,0.0,91,0.00,,,0.02,Wunderground v.1.15,2013-11-24 22:40:00,
2013-11-24 15:45:00,34.4,32.0,30.07,NNW,344,0.0,0.0,91,0.00,,,0.02,Wunderground v.1.15,2013-11-24 22:45:00,
2013-11-24 15:50:00,34.4,32.0,30.07,NNW,344,0.0,0.0,91,0.00,,,0.02,Wunderground v.1.15,2013-11-24 22:50:00,
2013-11-24 15:55:00,34.4,32.0,30.07,NNW,344,0.0,0.0,91,0.00,,,0.02,Wunderground v.1.15,2013-11-24 22:55:00,
2013-11-24 16:05:00,34.4,32.3,30.07,NNW,344,0.0,3.0,92,0.00,,,0.03,Wunderground v.1.15,2013-11-24 23:05:00,
2013-11-24 16:10:00,34.4,32.3,30.07,NNW,344,0.0,3.0,92,0.00,,,0.03,Wunderground v.1.15,2013-11-24 23:10:00,
2013-11-24 16:15:00,34.4,32.3,30.07,NNW,344,0.0,3.0,92,0.00,,,0.03,Wunderground v.1.15,2013-11-24 23:15:00,
2013-11-24 16:20:00,34.4,32.3,30.07,NNW,344,0.0,3.0,92,0.00,,,0.03,Wunderground v.1.15,2013-11-24 23:20:00,
2013-11-24 16:25:00,34.4,32.3,30.06,NNW,344,0.0,0.0,92,0.00,,,0.03,Wunderground v.1.15,2013-11-24 23:25:00,
2013-11-24 16:30:00,34.4,32.3,30.06,NNW,344,0.0,0.0,92,0.00,,,0.03,Wunderground v.1.15,2013-11-24 23:30:00,
2013-11-24 16:40:00,34.1,32.0,30.07,NNW,344,0.0,0.0,92,0.00,,,0.03,Wunderground v.1.15,2013-11-24 23:40:00,
2013-11-24 16:45:00,34.2,32.1,30.07,NNW,344,0.0,0.0,92,0.00,,,0.03,Wunderground v.1.15,2013-11-24 23:45:00,
2013-11-24 16:50:00,34.1,32.0,30.06,NNW,344,0.0,0.0,92,0.00,,,0.03,Wunderground v.1.15,2013-11-24 23:50:00,
2013-11-24 16:55:00,34.0,31.9,30.06,NNW,344,0.0,0.0,92,0.00,,,0.03,Wunderground v.1.15,2013-11-24 23:55:00,
2013-11-24 17:00:00,33.8,31.7,30.06,NNW,344,1.0,1.0,92,0.00,,,0.03,Wunderground v.1.15,2013-11-25 00:00:00,
2013-11-24 17:10:00,33.7,31.6,30.06,NNW,344,0.0,2.0,92,0.00,,,0.03,Wunderground v.1.15,2013-11-25 00:10:00,
2013-11-24 17:15:00,33.7,31.9,30.06,NNW,344,0.0,2.0,93,0.00,,,0.03,Wunderground v.1.15,2013-11-25 00:15:00,
2013-11-24 17:20:00,33.7,31.9,30.06,NNW,344,0.0,0.0,93,0.00,,,0.03,Wunderground v.1.15,2013-11-25 00:20:00,
2013-11-24 17:25:00,33.7,31.9,30.06,NNW,344,0.0,0.0,93,0.00,,,0.03,Wunderground v.1.15,2013-11-25 00:25:00,
2013-11-24 17:30:00,33.6,31.5,30.06,NNW,344,0.0,1.0,92,0.00,,,0.03,Wunderground v.1.15,2013-11-25 00:30:00,
2013-11-24 17:40:00,33.4,31.6,30.07,NNW,344,0.0,1.0,93,0.00,,,0.03,Wunderground v.1.15,2013-11-25 00:40:00,
2013-11-24 17:45:00,33.4,31.6,30.07,NNW,344,0.0,1.0,93,0.00,,,0.03,Wunderground v.1.15,2013-11-25 00:45:00,
2013-11-24 17:50:00,33.4,31.6,30.07,NNW,344,0.0,0.0,93,0.00,,,0.03,Wunderground v.1.15,2013-11-25 00:50:00,
2013-11-24 18:05:00,33.5,31.7,30.07,NNW,344,0.0,4.0,93,0.00,,,0.03,Wunderground v.1.15,2013-11-25 01:05:00,
2013-11-24 18:10:00,33.5,31.7,30.07,NNW,344,0.0,4.0,93,0.00,,,0.03,Wunderground v.1.15,2013-11-25 01:10:00,
2013-11-24 18:15:00,33.4,31.6,30.07,NNW,344,0.0,4.0,93,0.00,,,0.03,Wunderground v.1.15,2013-11-25 01:15:00,
2013-11-24 18:20:00,33.4,31.6,30.07,NNW,344,0.0,4.0,93,0.00,,,0.03,Wunderground v.1.15,2013-11-25 01:20:00,
2013-11-24 18:30:00,33.3,31.5,30.08,NNW,344,0.0,0.0,93,0.00,,,0.03,Wunderground v.1.15,2013-11-25 01:30:00,
2013-11-24 18:35:00,33.3,31.5,30.08,NNW,344,0.0,0.0,93,0.00,,,0.03,Wunderground v.1.15,2013-11-25 01:35:00,
2013-11-24 18:40:00,33.3,31.5,30.08,NNW,344,0.0,0.0,93,0.00,,,0.03,Wunderground v.1.15,2013-11-25 01:40:00,
2013-11-24 18:45:00,33.4,31.9,30.08,NNW,344,0.0,0.0,94,0.00,,,0.03,Wunderground v.1.15,2013-11-25 01:45:00,
2013-11-24 18:50:00,33.4,31.6,30.07,NNW,344,0.0,0.0,93,0.00,,,0.03,Wunderground v.1.15,2013-11-25 01:50:00,
2013-11-24 19:05:00,33.3,31.5,30.07,NNW,344,0.0,3.0,93,0.00,,,0.03,Wunderground v.1.15,2013-11-25 02:05:00,
2013-11-24 19:10:00,33.2,31.4,30.07,NNW,344,1.0,3.0,93,0.00,,,0.03,Wunderground v.1.15,2013-11-25 02:10:00,
2013-11-24 19:15:00,33.2,31.4,30.08,NNW,344,1.0,3.0,93,0.00,,,0.03,Wunderground v.1.15,2013-11-25 02:15:00,
2013-11-24 19:20:00,33.1,31.6,30.08,NNW,344,1.0,3.0,94,0.00,,,0.03,Wunderground v.1.15,2013-11-25 02:20:00,
2013-11-24 19:30:00,33.2,31.7,30.07,NNW,344,1.0,1.0,94,0.00,,,0.03,Wunderground v.1.15,2013-11-25 02:30:00,
2013-11-24 19:35:00,33.1,31.6,30.07,NNW,344,1.0,2.0,94,0.00,,,0.03,Wunderground v.1.15,2013-11-25 02:35:00,
2013-11-24 19:40:00,33.0,31.5,30.07,NNW,344,1.0,2.0,94,0.00,,,0.03,Wunderground v.1.15,2013-11-25 02:40:00,
2013-11-24 19:45:00,33.0,31.5,30.08,NNW,344,1.0,1.0,94,0.00,,,0.03,Wunderground v.1.15,2013-11-25 02:45:00,
2013-11-24 19:50:00,33.0,31.2,30.07,NNW,344,1.0,4.0,93,0.00,,,0.03,Wunderground v.1.15,2013-11-25 02:50:00,
2013-11-24 19:55:00,33.0,31.5,30.07,NNW,344,1.0,1.0,94,0.00,,,0.03,Wunderground v.1.15,2013-11-25 02:55:00,
2013-11-24 20:00:00,33.1,31.6,30.07,NNW,344,1.0,1.0,94,0.00,,,0.03,Wunderground v.1.15,2013-11-25 03:00:00,
2013-11-24 20:10:00,33.2,31.7,30.07,NNW,344,0.0,3.0,94,0.00,,,0.03,Wunderground v.1.15,2013-11-25 03:10:00,
2013-11-24 20:20:00,33.3,31.8,30.07,NNW,344,0.0,0.0,94,0.00,,,0.03,Wunderground v.1.15,2013-11-25 03:20:00,
2013-11-24 20:30:00,33.3,31.8,30.08,NNW,344,0.0,0.0,94,0.00,,,0.03,Wunderground v.1.15,2013-11-25 03:30:00,
2013-11-24 20:35:00,33.3,31.8,30.08,NNW,344,0.0,0.0,94,0.00,,,0.03,Wunderground v.1.15,2013-11-25 03:35:00,
2013-11-24 20:40:00,33.3,31.5,30.08,NNW,344,0.0,0.0,93,0.00,,,0.03,Wunderground v.1.15,2013-11-25 03:40:00,
2013-11-24 20:50:00,33.2,31.7,30.09,NNW,344,1.0,1.0,94,0.00,,,0.03,Wunderground v.1.15,2013-11-25 03:50:00,
2013-11-24 20:55:00,33.2,31.7,30.09,NNW,344,0.0,1.0,94,0.00,,,0.03,Wunderground v.1.15,2013-11-25 03:55:00,
2013-11-24 21:05:00,33.0,31.5,30.09,NNW,344,1.0,4.0,94,0.00,,,0.03,Wunderground v.1.15,2013-11-25 04:05:00,
2013-11-24 21:10:00,32.9,31.1,30.09,NNW,344,1.0,4.0,93,0.00,,,0.03,Wunderground v.1.15,2013-11-25 04:10:00,
2013-11-24 21:15:00,32.9,31.1,30.09,NNW,344,1.0,4.0,93,0.00,,,0.03,Wunderground v.1.15,2013-11-25 04:15:00,
2013-11-24 21:20:00,32.8,31.3,30.09,NNW,344,1.0,4.0,94,0.00,,,0.03,Wunderground v.1.15,2013-11-25 04:20:00,
2013-11-24 21:25:00,32.8,31.3,30.09,NNW,344,2.0,2.0,94,0.00,,,0.03,Wunderground v.1.15,2013-11-25 04:25:00,
2013-11-24 21:30:00,32.8,31.3,30.09,NNW,344,2.0,2.0,94,0.00,,,0.03,Wunderground v.1.15,2013-11-25 04:30:00,
2013-11-24 21:35:00,32.7,31.2,30.10,NNW,344,2.0,4.0,94,0.00,,,0.03,Wunderground v.1.15,2013-11-25 04:35:00,
2013-11-24 21:40:00,32.7,31.2,30.10,NNW,344,2.0,4.0,94,0.00,,,0.03,Wunderground v.1.15,2013-11-25 04:40:00,
2013-11-24 21:45:00,32.6,31.1,30.10,NNW,344,2.0,3.0,94,0.00,,,0.03,Wunderground v.1.15,2013-11-25 04:45:00,
2013-11-24 21:50:00,32.6,31.1,30.10,NNW,344,2.0,3.0,94,0.00,,,0.03,Wunderground v.1.15,2013-11-25 04:50:00,
2013-11-24 21:55:00,32.6,31.1,30.10,NNW,344,2.0,4.0,94,0.00,,,0.03,Wunderground v.1.15,2013-11-25 04:55:00,
2013-11-24 22:00:00,32.6,31.1,30.10,NNW,344,2.0,3.0,94,0.00,,,0.03,Wunderground v.1.15,2013-11-25 05:00:00,
2013-11-24 22:05:00,32.6,30.8,30.10,NNW,344,2.0,3.0,93,0.00,,,0.03,Wunderground v.1.15,2013-11-25 05:05:00,
2013-11-24 22:10:00,32.6,30.8,30.11,NNW,344,2.0,3.0,93,0.00,,,0.03,Wunderground v.1.15,2013-11-25 05:10:00,
2013-11-24 22:15:00,32.6,30.8,30.11,NNW,344,1.0,3.0,93,0.00,,,0.03,Wunderground v.1.15,2013-11-25 05:15:00,
2013-11-24 22:20:00,32.6,30.8,30.11,NNW,344,1.0,1.0,93,0.00,,,0.03,Wunderground v.1.15,2013-11-25 05:20:00,
2013-11-24 22:25:00,32.6,30.8,30.11,NNW,344,1.0,4.0,93,0.00,,,0.03,Wunderground v.1.15,2013-11-25 05:25:00,
2013-11-24 22:30:00,32.6,30.8,30.11,NNW,344,2.0,4.0,93,0.00,,,0.03,Wunderground v.1.15,2013-11-25 05:30:00,
2013-11-24 22:35:00,32.6,30.8,30.11,NNW,344,2.0,4.0,93,0.00,,,0.03,Wunderground v.1.15,2013-11-25 05:35:00,
2013-11-24 22:40:00,32.6,30.8,30.11,NNW,344,2.0,4.0,93,0.00,,,0.03,Wunderground v.1.15,2013-11-25 05:40:00,
2013-11-24 22:45:00,32.5,30.4,30.11,NNW,344,3.0,5.0,92,0.00,,,0.03,Wunderground v.1.15,2013-11-25 05:45:00,
2013-11-24 22:50:00,32.5,30.4,30.10,NNW,344,3.0,4.0,92,0.00,,,0.03,Wunderground v.1.15,2013-11-25 05:50:00,
2013-11-24 23:00:00,32.5,30.4,30.10,NNW,344,4.0,4.0,92,0.00,,,0.03,Wunderground v.1.15,2013-11-25 06:00:00,
2013-11-24 23:05:00,32.5,30.4,30.10,NNW,344,4.0,6.0,92,0.00,,,0.03,Wunderground v.1.15,2013-11-25 06:05:00,
2013-11-24 23:10:00,32.5,30.4,30.10,NNW,344,4.0,6.0,92,0.00,,,0.03,Wunderground v.1.15,2013-11-25 06:10:00,
2013-11-24 23:15:00,32.5,30.4,30.10,NNW,344,4.0,7.0,92,0.00,,,0.03,Wunderground v.1.15,2013-11-25 06:15:00,
2013-11-24 23:20:00,32.5,30.4,30.11,NNW,344,4.0,6.0,92,0.00,,,0.03,Wunderground v.1.15,2013-11-25 06:20:00,
2013-11-24 23:25:00,32.5,30.4,30.11,North,350,5.0,6.0,92,0.00,,,0.03,Wunderground v.1.15,2013-11-25 06:25:00,
2013-11-24 23:30:00,32.5,30.4,30.11,NNW,348,5.0,5.0,92,0.00,,,0.03,Wunderground v.1.15,2013-11-25 06:30:00,
2013-11-24 23:40:00,32.5,30.4,30.11,NNW,348,3.0,4.0,92,0.00,,,0.03,Wunderground v.1.15,2013-11-25 06:40:00,
2013-11-24 23:45:00,32.4,30.3,30.11,NNW,347,3.0,4.0,92,0.00,,,0.03,Wunderground v.1.15,2013-11-25 06:45:00,
2013-11-24 23:50:00,32.4,30.3,30.11,NNW,346,3.0,3.0,92,0.00,,,0.03,Wunderground v.1.15,2013-11-25 06:50:00,
2013-11-24 23:55:00,32.4,30.3,30.11,NNW,345,2.0,4.0,92,0.00,,,0.03,Wunderground v.1.15,2013-11-25 06:55:00,